sat.trackr.live / text

‹ back to catalog

STARLINK-36740

NORAD 67741 · 2026-026W

PAYLOAD ACTIVE UNKNOWN

§ Identity

Operator
Country
US
Launch date
2026-02-11
Launch site
AFWTR
Launch vehicle
Mass (kg)
RCS (m²)

Purposes: comms

External: N2YO · Heavens-Above · Gunter

§ Orbital elements

Epoch: 2026-09-19T10:44:32.531136Z

Period
93.90 min
Inclination
97.2859°
Eccentricity
0.0000847
Mean motion
15.33470484 rev/d
Perigee alt
464.9 km
Apogee alt
466.0 km
Semi-major
6,843.6 km
B*
4.8666e-4
RAAN
314.3600°
Arg perigee
96.7102°
Mean anomaly
263.4237°
Rev number
3,382

§ Raw data

STARLINK-367401 67741U 26026W   26262.44759874  .00015681  00000+0  48666-3 0  99902 67741  97.2859 314.3600 0000847  96.7102 263.4237 15.33470484 33820

JSON: /api/v1/satellites/67741 · /tle

For live sub-satellite position, see the globe view (requires WebGL).

§ Visibility from observer

Set your observer location to see the next 7 days of passes ≥ 10°. The values pass through the URL so the page stays shareable.

No JS? Fill the form by hand. The geolocation button needs JavaScript.